Maxton, NC

11:25 AM EST on February 06, 2016 (GMT -0500)
Laurinburg-Maxton

Weather History for KMEB - February, 2013

Change the Weather History Date:

Thursday, February 21, 2013

  Actual Average (KLBT) Record (KLBT)
Temperature  
Mean Temperature 42 °F 48 °F  
Max Temperature 55 °F 60 °F 77 °F (2011)
Min Temperature 28 °F 37 °F 22 °F (2015)
Degree Days  
Heating Degree Days 24 17  
Month to date heating degree days 399  
Since 1 July heating degree days 2118  
Cooling Degree Days 0 0  
Month to date cooling degree days 0  
Year to date cooling degree days 1  
Moisture  
Dew Point 22 °F    
Average Humidity 48    
Maximum Humidity 75    
Minimum Humidity 24    
Precipitation  
Precipitation 0.00 in 0.12 in 0.30 in (2014)
Month to date precipitation 2.12  
Year to date precipitation 5.09  
Sea Level Pressure  
Sea Level Pressure 30.18 in    
Wind  
Wind Speed 4 mph (ENE)    
Max Wind Speed 8 mph    
Max Gust Speed -    
Visibility 10 miles    
Events      
T = Trace of Precipitation, MM = Missing Value Source: NWS Daily Summary

Daily Weather History Graph

Daily Weather History Graph

Search for Another Location

Airport or City:

Trip Planner

Search our weather history database for the weather conditions in past years. The results will help you decide how hot, cold, wet, or windy it might be!

Date:

Astronomy

Feb. 21, 2013 Rise Set
Actual Time 6:56 AM EST 6:06 PM EST
Civil Twilight 6:30 AM EST 6:31 PM EST
Nautical Twilight 6:01 AM EST 7:01 PM EST
Astronomical Twilight 5:32 AM EST 7:30 PM EST
Moon 2:25 PM EST (2/21) 3:53 AM EST (2/21)
Length of Visible Light 12h 01m
Length of Day
11h 10m
Waxing Gibbous, 83% of the Moon is Illuminated
Feb 21
Waxing Gibbous
Feb 25
Full
Mar 4
Last Quarter
Mar 11
New
Mar 19
First Quarter

Hourly Weather History & Observations

Time (EST) Temp. Windchill Dew Point Humidity Pressure Visibility Wind Dir Wind Speed Gust Speed Precip Events Conditions
12:52 AM 35.1 °F 30.1 °F 21.9 °F 59% 30.13 in 10.0 mi NE 5.8 mph - N/A   Clear
1:52 AM 32.0 °F - 24.1 °F 73% 30.15 in 10.0 mi Calm Calm - N/A   Clear
2:52 AM 28.9 °F 25.2 °F 21.9 °F 75% 30.15 in 10.0 mi NNE 3.5 mph - N/A   Clear
3:52 AM 30.0 °F 25.2 °F 21.0 °F 69% 30.17 in 10.0 mi NE 4.6 mph - N/A   Clear
4:52 AM 30.0 °F 25.2 °F 19.0 °F 64% 30.18 in 10.0 mi NNE 4.6 mph - N/A   Clear
5:52 AM 30.0 °F 26.5 °F 19.0 °F 64% 30.18 in 10.0 mi NNE 3.5 mph - N/A   Clear
6:52 AM 28.9 °F - 18.0 °F 64% 30.21 in 10.0 mi Calm Calm - N/A   Clear
8:52 AM 37.9 °F 32.7 °F 21.0 °F 51% 30.25 in 10.0 mi ENE 6.9 mph - N/A   Clear
9:52 AM 42.1 °F 37.1 °F 19.0 °F 40% 30.25 in 10.0 mi ENE 8.1 mph - N/A   Clear
10:52 AM 46.0 °F 43.1 °F 19.0 °F 34% 30.23 in 10.0 mi East 5.8 mph - N/A   Clear
11:52 AM 50.0 °F - 16.0 °F 26% 30.21 in 10.0 mi Calm Calm - N/A   Clear
12:52 PM 52.0 °F - 16.0 °F 24% 30.18 in 10.0 mi NE 4.6 mph - N/A   Clear
1:52 PM 53.1 °F - 18.0 °F 25% 30.15 in 10.0 mi ESE 4.6 mph - N/A   Clear
2:52 PM 55.9 °F - 19.9 °F 25% 30.12 in 10.0 mi SE 4.6 mph - N/A   Clear
3:52 PM 55.9 °F - 19.0 °F 24% 30.12 in 10.0 mi South 4.6 mph - N/A   Clear
4:52 PM 55.9 °F - 19.9 °F 25% 30.14 in 10.0 mi Calm Calm - N/A   Clear
5:52 PM 51.1 °F - 30.0 °F 44% 30.14 in 10.0 mi SSE 5.8 mph - N/A   Clear
6:52 PM 48.9 °F - 26.1 °F 41% 30.17 in 10.0 mi Calm Calm - N/A   Clear
7:52 PM 45.0 °F 43.5 °F 34.0 °F 65% 30.18 in 10.0 mi ENE 3.5 mph - N/A   Clear
8:52 PM 44.1 °F - 33.1 °F 65% 30.18 in 10.0 mi Calm Calm - N/A   Clear
9:52 PM 43.0 °F 39.5 °F 30.9 °F 62% 30.21 in 10.0 mi ENE 5.8 mph - N/A   Clear
10:52 PM 46.9 °F - 23.0 °F 39% 30.22 in 10.0 mi East 8.1 mph - N/A   Clear
11:52 PM 46.0 °F 43.1 °F 24.1 °F 42% 30.24 in 10.0 mi East 5.8 mph - N/A   Overcast